TimeCDT,TemperatureF,Dew PointF,Humidity,Sea Level PressureIn,VisibilityMPH,Wind Direction,Wind SpeedMPH,Gust SpeedMPH,PrecipitationIn,Events,Conditions,WindDirDegrees,DateUTC
12:54 AM,39.9,25.0,55,30.26,10.0,NW,5.8,-,N/A,,Clear,320,2013-05-12 05:54:00
1:54 AM,39.0,24.1,55,30.26,10.0,NNW,4.6,-,N/A,,Clear,340,2013-05-12 06:54:00
2:54 AM,34.0,25.0,70,30.26,10.0,NNW,5.8,-,N/A,,Clear,340,2013-05-12 07:54:00
3:54 AM,33.1,26.1,75,30.27,10.0,West,4.6,-,N/A,,Clear,270,2013-05-12 08:54:00
4:54 AM,33.1,26.1,75,30.27,10.0,Calm,Calm,-,N/A,,Clear,0,2013-05-12 09:54:00
5:54 AM,30.9,25.0,79,30.28,10.0,Calm,Calm,-,N/A,,Clear,0,2013-05-12 10:54:00
6:54 AM,33.1,27.0,78,30.30,10.0,Calm,Calm,-,N/A,,Clear,0,2013-05-12 11:54:00
7:54 AM,41.0,30.0,65,30.29,10.0,Calm,Calm,-,N/A,,Clear,0,2013-05-12 12:54:00
8:54 AM,48.0,28.0,46,30.28,10.0,Calm,Calm,-,N/A,,Clear,0,2013-05-12 13:54:00
9:54 AM,52.0,23.0,32,30.28,10.0,Calm,Calm,-,N/A,,Clear,0,2013-05-12 14:54:00
10:54 AM,54.0,19.9,26,30.27,10.0,Calm,Calm,-,N/A,,Clear,0,2013-05-12 15:54:00
11:54 AM,57.0,21.0,25,30.26,10.0,Variable,5.8,-,N/A,,Clear,0,2013-05-12 16:54:00
12:54 PM,59.0,23.0,25,30.23,10.0,Variable,3.5,-,N/A,,Clear,0,2013-05-12 17:54:00
1:54 PM,61.0,21.9,22,30.21,10.0,East,5.8,-,N/A,,Clear,80,2013-05-12 18:54:00
2:54 PM,64.0,24.1,22,30.18,10.0,NE,9.2,18.4,N/A,,Clear,50,2013-05-12 19:54:00
3:54 PM,64.0,23.0,21,30.16,10.0,ESE,6.9,-,N/A,,Clear,110,2013-05-12 20:54:00
4:54 PM,64.9,23.0,20,30.14,10.0,Variable,5.8,-,N/A,,Clear,0,2013-05-12 21:54:00
5:54 PM,66.0,23.0,20,30.14,10.0,East,5.8,-,N/A,,Clear,80,2013-05-12 22:54:00
6:54 PM,66.0,21.9,19,30.11,10.0,East,4.6,-,N/A,,Clear,100,2013-05-12 23:54:00
7:54 PM,64.9,23.0,20,30.10,10.0,Calm,Calm,-,N/A,,Clear,0,2013-05-13 00:54:00
8:54 PM,57.9,30.9,36,30.10,10.0,East,6.9,-,N/A,,Clear,100,2013-05-13 01:54:00
9:54 PM,54.0,30.9,41,30.10,10.0,North,-9999.0,-,N/A,,Clear,0,2013-05-13 02:54:00
10:54 PM,48.9,30.0,48,30.11,10.0,South,3.5,-,N/A,,Clear,190,2013-05-13 03:54:00
11:54 PM,48.0,30.9,52,30.10,10.0,SSE,3.5,-,N/A,,Clear,160,2013-05-13 04:54:00